[TLELIST] Archives

 

[list_settings.list_name] Current TLEs

January 5th 2014 PST

HST 1 20580U 90037B 14004.19160663 .00003442 00000-0 22816-3 0 4096 2 20580 028.4716 034.4425 0003010 340.2027 077.6868 15.04457575 99989 ISS (ZARYA) 1 25544U 98067A 14005.47273759 .00010420 00000-0 18912-3 0 3977 2 25544 051.6485 186.0737 0005251 355.5693 039.1782 15.50174977866086 CXO 1 25867U 99040B 14006.57077286 -.00000553 00000-0 00000+0 0 9794 2 25867 076.4441 328.1926 8332827 275.9447 000.4650 00.37802203 11303 ____________________________________________________________________ These 2-Line ...Continue Reading

[list_settings.list_name] Current TLEs

January 4th 2014 PST

HST 1 20580U 90037B 14004.19160663 .00003442 00000-0 22816-3 0 4096 2 20580 028.4716 034.4425 0003010 340.2027 077.6868 15.04457575 99989 ISS (ZARYA) 1 25544U 98067A 14004.50624698 .00009334 00000-0 17042-3 0 3900 2 25544 051.6484 190.8615 0005077 351.1206 046.4648 15.50149438865930 CXO 1 25867U 99040B 14006.57077286 -.00000553 00000-0 00000+0 0 9794 2 25867 076.4441 328.1926 8332827 275.9447 000.4650 00.37802203 11303 ____________________________________________________________________ These 2-Line ...Continue Reading

[list_settings.list_name] Current TLEs

January 3rd 2014 PST

HST 1 20580U 90037B 14002.54543411 .00003278 00000-0 21678-3 0 4080 2 20580 028.4715 045.2473 0003010 322.2027 162.3747 15.04448356 99740 ISS (ZARYA) 1 25544U 98067A 14003.16489706 .00008475 00000-0 15564-3 0 3823 2 25544 051.6489 197.5078 0005009 346.3708 120.8691 15.50119463865727 CXO 1 25867U 99040B 14003.92462261 -.00000374 00000-0 00000+0 0 9781 2 25867 076.4356 328.3175 8339891 275.9683 000.2959 00.37801582 11293 ____________________________________________________________________ These 2-Line ...Continue Reading

[list_settings.list_name] Current TLEs

January 2nd 2014 PST

HST 1 20580U 90037B 14001.48807890 .00002744 00000-0 17956-3 0 4076 2 20580 028.4715 052.1875 0002934 310.6602 195.9843 15.04442113 99583 ISS (ZARYA) 1 25544U 98067A 14002.50803571 .00008652 00000-0 15879-3 0 3769 2 25544 051.6487 200.7625 0004879 343.8362 055.4306 15.50108473865626 CXO 1 25867U 99040B 14003.92462261 -.00000374 00000-0 00000+0 0 9781 2 25867 076.4356 328.3175 8339891 275.9683 000.2959 00.37801582 11293 ____________________________________________________________________ These 2-Line ...Continue Reading

[list_settings.list_name] Current TLEs

January 1st 2014 PST

HST 1 20580U 90037B 13364.62755148 .00002423 00000-0 15716-3 0 4066 2 20580 028.4714 064.3987 0002817 289.2595 200.9379 15.04432117 99307 ISS (ZARYA) 1 25544U 98067A 14001.41747308 .00008531 00000-0 15680-3 0 3691 2 25544 051.6488 206.1647 0004876 340.4639 089.0593 15.50088337865456 CXO 1 25867U 99040B 14003.92462261 -.00000374 00000-0 00000+0 0 9781 2 25867 076.4356 328.3175 8339891 275.9683 000.2959 00.37801582 11293 ____________________________________________________________________ These 2-Line ...Continue Reading

[list_settings.list_name] Current TLEs

December 31st 2013 PST

HST 1 20580U 90037B 13364.62755148 .00002423 00000-0 15716-3 0 4066 2 20580 028.4714 064.3987 0002817 289.2595 200.9379 15.04432117 99307 ISS (ZARYA) 1 25544U 98067A 13365.45025208 .00008234 00000-0 15172-3 0 3613 2 25544 051.6486 210.9574 0004864 337.4188 091.1646 15.50069593865308 CXO 1 25867U 99040B 14001.27784750 -.00000314 00000-0 00000+0 0 9770 2 25867 076.4238 328.4623 8345853 275.9677 000.1146 00.37800793 11288 ____________________________________________________________________ These 2-Line ...Continue Reading

[list_settings.list_name] Current TLEs

December 30th 2013 PST

HST 1 20580U 90037B 13363.49714694 .00002280 00000-0 14720-3 0 4055 2 20580 028.4714 071.8174 0002765 274.8447 201.0609 15.04427164 99131 ISS (ZARYA) 1 25544U 98067A 13364.48459257 .00009551 00000-0 17476-3 0 3555 2 25544 051.6488 215.7430 0004581 333.6395 102.7981 15.50055505865150 CXO 1 25867U 99040B 14001.27784750 -.00000314 00000-0 00000+0 0 9770 2 25867 076.4238 328.4623 8345853 275.9677 000.1146 00.37800793 11288 ____________________________________________________________________ These 2-Line ...Continue Reading

[list_settings.list_name] Current TLEs

December 29th 2013 PST

HST 1 20580U 90037B 13361.70928184 .00002198 00000-0 14149-3 0 4040 2 20580 028.4712 083.5513 0002750 254.3981 239.4568 15.04420296 98863 ISS (ZARYA) 1 25544U 98067A 13363.37091435 -.00002651 00000-0 -38413-4 0 3474 2 25544 051.6485 221.2616 0005116 332.4424 005.3606 15.50013191864976 CXO 1 25867U 99040B 13363.63269576 -.00000419 00000-0 00000+0 0 9769 2 25867 076.4136 328.6060 8349551 275.9624 000.1764 00.37801133 11277 ____________________________________________________________________ These 2-Line ...Continue Reading

[list_settings.list_name] Current TLEs

December 28th 2013 PST

HST 1 20580U 90037B 13361.70928184 .00002198 00000-0 14149-3 0 4040 2 20580 028.4712 083.5513 0002750 254.3981 239.4568 15.04420296 98863 ISS (ZARYA) 1 25544U 98067A 13362.23252465 -.00006848 00000-0 -11188-3 0 3392 2 25544 051.6485 226.8983 0005063 319.9305 141.4270 15.50036687864809 CXO 1 25867U 99040B 13363.63269576 -.00000419 00000-0 00000+0 0 9769 2 25867 076.4136 328.6060 8349551 275.9624 000.1764 00.37801133 11277 ____________________________________________________________________ These 2-Line ...Continue Reading

[list_settings.list_name] Current TLEs

December 27th 2013 PST

HST 1 20580U 90037B 13360.51196914 .00002334 00000-0 15100-3 0 4035 2 20580 028.4709 091.4094 0002739 240.4728 236.0540 15.04415747 98681 ISS (ZARYA) 1 25544U 98067A 13361.13268696 .00009174 00000-0 16809-3 0 3313 2 25544 051.6495 232.3459 0004546 317.8139 122.2407 15.50073083864638 CXO 1 25867U 99040B 13363.63269576 -.00000419 00000-0 00000+0 0 9769 2 25867 076.4136 328.6060 8349551 275.9624 000.1764 00.37801133 11277 ____________________________________________________________________ These 2-Line ...Continue Reading
  • This mailing list is a public mailing list - anyone may join or leave, at any time.
  • This mailing list is announce-only.

International Space Station (ISS) / Hubble Space Telescope (HST) / Chandra X-Ray Observatory Orbital Data via EMAIL

Privacy Policy:

Private list